This is the latest recevied weather packets stored in our database for station/object KI4NG. If no packets are shown the sender has not sent any weather packets the latest 10 day(s).
| Time | Temp. | Humidity | Pressure | Rain* | Wind** | Luminosity | Snow |
|---|---|---|---|---|---|---|---|
| 1788443336 | 27.78° C | 80% | 1021.2 hPa | 0 mm | - | 318 W/m² | - |
| 1788443032 | 27.78° C | 82% | 1021.2 hPa | 0 mm | - | 306 W/m² | - |
| 1788442729 | 27.22° C | 83% | 1021.3 hPa | 0 mm | - | 108 W/m² | - |
| 1788442426 | 27.22° C | 84% | 1021.2 hPa | 0 mm | - | 75 W/m² | - |
| 1788442125 | 26.67° C | 86% | 1021.5 hPa | 0 mm | - | 239 W/m² | - |
| 1788441816 | 26.11° C | 87% | 1021.4 hPa | 0 mm | - | 70 W/m² | - |
| 1788441516 | 25.56° C | 87% | 1021.4 hPa | 0 mm | - | 70 W/m² | - |
| 1788441210 | 25.56° C | 89% | 1021.3 hPa | 0 mm | - | 102 W/m² | - |
| 1788440909 | 25° C | 89% | 1021.5 hPa | 0 mm | - | 189 W/m² | - |
| 1788440604 | 25° C | 90% | 1021.5 hPa | 0 mm | - | 172 W/m² | - |
| 1788440303 | 25° C | 89% | 1021.2 hPa | 0 mm | - | 148 W/m² | - |
| 1788439999 | 24.44° C | 91% | 1021.3 hPa | 0 mm | - | 144 W/m² | - |
| 1788439698 | 23.89° C | 93% | 1021.4 hPa | 0 mm | - | 133 W/m² | - |
| 1788439393 | 23.33° C | 94% | 1021.5 hPa | 0 mm | - | 101 W/m² | - |
| 1788439092 | 22.78° C | 95% | 1021.4 hPa | 0 mm | - | 67 W/m² | - |
| 1788438792 | 22.78° C | 96% | 1021.4 hPa | 0 mm | - | 60 W/m² | - |
| 1788438489 | 22.22° C | 98% | 1021.6 hPa | 0 mm | - | 55 W/m² | - |
| 1788438185 | 21.67° C | 99% | 1021.3 hPa | 0 mm | - | 51 W/m² | - |
| 1788437882 | 21.67° C | 99% | 1021.1 hPa | 0 mm | - | 39 W/m² | - |
| 1788437579 | 21.67° C | 99% | 1021.3 hPa | 0 mm | - | 35 W/m² | - |
| 1788437274 | 21.67° C | 99% | 1021.3 hPa | 0 mm | - | 33 W/m² | - |
| 1788436968 | 21.67° C | 99% | 1021.2 hPa | 0 mm | - | 31 W/m² | - |
| 1788436666 | 21.67° C | 99% | 1021.3 hPa | 0 mm | - | 27 W/m² | - |
| 1788436362 | 21.11° C | 99% | 1021.1 hPa | 0 mm | - | 24 W/m² | - |
| 1788436056 | 21.11° C | 99% | 1021.1 hPa | 0 mm | - | 21 W/m² | - |
* Rain latest hour (hover to see other rain measurements)
** Current wind speed in m/s (hover to see current wind gust speed)